Regional Weather Roundup
Issued by NWS

Home | Current Version | Previous Version | Text Only | Print | Product List | Glossary On
Versions: 1 2 3 4 5 6 7 8 9 10 11 12 13 14 15 16 17 18 19 20 21 22 23 24 25 26 27 28 29 30 31 32 33 34 35 36 37 38 39 40 41 42 43 44 45 46 47 48 49 50
000
ASUS44 KFWD 191215
RWRTX
NORTH TEXAS HOURLY WEATHER ROUNDUP
NATIONAL WEATHER SERVICE FORT WORTH TX
700 AM CDT FRI SEP 19 2014

NOTE: "FAIR" INDICATES FEW OR NO CLOUDS BELOW 12,000 FEET WITH NO
SIGNIFICANT WEATHER AND/OR OBSTRUCTIONS TO VISIBILITY.

TXZ118-119-191300-
DALLAS/FORT WORTH METROPLEX

CITY           SKY/WX    TMP DP  RH WIND       PRES   REMARKS
DFW AIRPORT    PTCLDY    69  66  90 CALM      29.93S
6HR MIN TEMP:  69; 6HR MAX TEMP:  73;

DALLAS LOVE    PTCLDY    70  67  90 SE7       29.94R
6HR MIN TEMP:  70; 6HR MAX TEMP:  74;

FTW MEACHAM    PTCLDY    70  66  87 E3        29.93R
6HR MIN TEMP:  70; 6HR MAX TEMP:  76;

DAL-EXECUTIVE  CLOUDY    70  68  93 CALM      29.93S FOG
6HR MIN TEMP:  68; 6HR MAX TEMP:  72;

FTW-ALLIANCE   PTCLDY    67  65  93 SE3       29.93S
6HR MIN TEMP:  66; 6HR MAX TEMP:  74;

FTW-NAS-JRB    MOCLDY    73  66  78 SE7       29.98R
6HR MIN TEMP:  73; 6HR MAX TEMP:  78;

FTW-SPINKS       N/A     70  66  88 CALM      29.95S VSB 1/2
ARLINGTON      CLOUDY    71  67  87 NE5       29.93S
6HR MIN TEMP:  69; 6HR MAX TEMP:  74;

GRAND PRAIRIE    N/A     70  68  94 MISG      29.94S
ADDISON        PTCLDY    70  66  88 E3        29.95R
MESQUITE       CLOUDY    68  66  94 CALM      29.94S FOG
LANCASTER      CLOUDY    69  67  93 CALM      29.94S
6HR MIN TEMP:  66; 6HR MAX TEMP:  69;

$$

TXZ091>094-102>105-117-120-121-131>134-191300-
NORTH CENTRAL TEXAS

CITY           SKY/WX    TMP DP  RH WIND       PRES   REMARKS
SHRMAN/DENISON CLEAR     67  65  92 CALM      29.97R
6HR MIN TEMP:  67; 6HR MAX TEMP:  74;

GAINESVILLE    CLEAR     66  65  94 CALM      29.97S
6HR MIN TEMP:  66; 6HR MAX TEMP:  72;

BOWIE          PTCLDY    67  67  99 E3        29.95S FOG
6HR MIN TEMP:  66; 6HR MAX TEMP:  71;

BRIDGEPORT     MOCLDY    68  68 100 SE3       29.95F
6HR MIN TEMP:  68; 6HR MAX TEMP:  72;

DECATUR        PTCLDY    66  65  97 E5        29.95S
6HR MIN TEMP:  66; 6HR MAX TEMP:  73;

DENTON         CLEAR     68  65  90 CALM      29.94S
6HR MIN TEMP:  67; 6HR MAX TEMP:  75;

MCKINNEY       CLOUDY    68  67  96 CALM      29.95R
6HR MIN TEMP:  68; 6HR MAX TEMP:  72;

GREENVILLE     CLEAR     64  63  94 CALM      29.95S
ROCKWALL       CLOUDY    69  69 100 NE3       29.93S FOG
6HR MIN TEMP:  68; 6HR MAX TEMP:  71;

TERRELL        MOCLDY    71  70  96 E5        29.94R
6HR MIN TEMP:  69; 6HR MAX TEMP:  72;

WAXAHACHIE     CLOUDY    68  67  96 CALM      29.95R FOG
6HR MIN TEMP:  66; 6HR MAX TEMP:  69;

CLEBURNE       CLOUDY    68  68 100 NE5       29.95S FOG
GRANBURY       CLOUDY    72  69  90 CALM      29.94S FOG
6HR MIN TEMP:  72; 6HR MAX TEMP:  74;

$$

TXZ083>090-098>101-113>116-127>130-139>142-154-155-191300-
WESTERN NORTH TEXAS

CITY           SKY/WX    TMP DP  RH WIND       PRES   REMARKS
WICHITA FALLS  CLEAR     67  66  97 E5        29.94S FOG
6HR MIN TEMP:  67; 6HR MAX TEMP:  72;

WF-KICKAPOO    CLEAR     69  69 100 CALM      29.95S FOG
6HR MIN TEMP:  69; 6HR MAX TEMP:  73;

VERNON         PTCLDY    68  66  94 E3        29.96S
6HR MIN TEMP:  68; 6HR MAX TEMP:  79;

ABILENE        CLOUDY    69  68  96 E5        29.96R FOG
6HR MIN TEMP:  69; 6HR MAX TEMP:  72;

ABILENE-DYESS  MOCLDY    68  64  84 E6        29.95R
6HR MIN TEMP:  68; 6HR MAX TEMP:  71;

BRECKENRIDGE   MOCLDY    70  69  98 SE8       29.94S FOG
6HR MIN TEMP:  70; 6HR MAX TEMP:  74;

GRAHAM         FOG       68  67  96 E3        29.93S VSB 1/2
6HR MIN TEMP:  68; 6HR MAX TEMP:  73;

MINERAL WELLS  PTCLDY    70  68  93 E7        29.93R
6HR MIN TEMP:  69; 6HR MAX TEMP:  72;

STEPHENVILLE   CLOUDY    71  69  91 E3        29.97S
6HR MIN TEMP:  71; 6HR MAX TEMP:  73;

COMANCHE       CLOUDY    71  71 100 CALM      29.94F FOG
6HR MIN TEMP:  68; 6HR MAX TEMP:  71;

BROWNWOOD      CLOUDY    70  68  94 E3        29.94S
COLEMAN        CLOUDY    70  69  95 E6        29.95S
6HR MIN TEMP:  70; 6HR MAX TEMP:  71;

BRADY          CLOUDY    70  70 100 E7        29.93R
$$

TXZ143>147-156>162-174-175-191300-
CENTRAL TEXAS

CITY           SKY/WX    TMP DP  RH WIND       PRES   REMARKS
WACO           FOG       70  69  97 NE6       29.92R VSB 1/4
6HR MIN TEMP:  70; 6HR MAX TEMP:  72;

WACO-TSTC      FOG       70  70 100 CALM      29.92  VSB 1/2
WACO-MCGREGOR  CLOUDY    72  66  83 NE6       29.93R
6HR MIN TEMP:  72; 6HR MAX TEMP:  73;

HILLSBORO      CLOUDY    70  68  93 E5        29.93R FOG
6HR MIN TEMP:  69; 6HR MAX TEMP:  71;

CORSICANA      CLOUDY    73  70  90 E5        29.94R
6HR MIN TEMP:  72; 6HR MAX TEMP:  73;

MEXIA          CLOUDY    71  71  99 CALM      29.92R FOG
6HR MIN TEMP:  69; 6HR MAX TEMP:  71; 6HR PCP:  0.14;

HEARNE         CLOUDY    73  73  98 NE3       29.90S FOG
6HR MIN TEMP:  72; 6HR MAX TEMP:  73; 6HR PCP:  0.01;

CAMERON        CLOUDY    73  73  99 CALM      29.89F FOG
6HR MIN TEMP:  73; 6HR MAX TEMP:  73;

TEMPLE         CLOUDY    72  66  83 NE6       29.91S
6HR MIN TEMP:  72; 6HR MAX TEMP:  73;

KILLEEN        FOG       73  72  94 E7        29.90S VSB 5/8
KILLEEN-SKYLRK CLOUDY    72  66  83 E7        29.91S
6HR MIN TEMP:  72; 6HR MAX TEMP:  73;

FORT HOOD      CLOUDY    73  72  94 NE5       29.92R FOG
6HR MIN TEMP:  73; 6HR MAX TEMP:  75;

GATESVILLE     CLOUDY    72  72 100 E3        29.94R FOG
HAMILTON       CLOUDY    72  72 100 E3        29.94S
6HR MIN TEMP:  71; 6HR MAX TEMP:  73;

LAMPASAS       CLOUDY    73  72  97 E3        29.92R
6HR MIN TEMP:  72; 6HR MAX TEMP:  73;

$$

TXZ095>097-106>112-122>126-135>138-148>153-164>167-191300-
EAST TEXAS

CITY           SKY/WX    TMP DP  RH WIND       PRES   REMARKS
PARIS          CLOUDY    72  64  78 E8        29.97R
6HR MIN TEMP:  70; 6HR MAX TEMP:  72;

SULPHUR SPRNGS MOCLDY    68  68  99 E3        29.98R
6HR MIN TEMP:  67; 6HR MAX TEMP:  71;

MOUNT PLEASANT CLOUDY    71  70  98 CALM      29.96S VSB 1/4
6HR MIN TEMP:  67; 6HR MAX TEMP:  71;

GILMER         PTCLDY    68  68 100 CALM      29.96R
MINEOLA        FOG       66  66 100 CALM      29.96R VSB<1/4
TYLER          PTCLDY    70  66  88 NE5       29.94S
6HR MIN TEMP:  70; 6HR MAX TEMP:  72;

LONGVIEW       PTCLDY    67  65  93 CALM      29.94R
6HR MIN TEMP:  67; 6HR MAX TEMP:  70;

MARSHALL       CLOUDY    73  71  92 N5        29.96R
6HR MIN TEMP:  70; 6HR MAX TEMP:  73;

ATHENS         CLOUDY    70  68  94 CALM      29.93R
PALESTINE      CLOUDY    72  71  96 E5        29.94R
JACKSONVILLE   CLOUDY    69  68  95 CALM      29.95S
HENDERSON      PTCLDY    66  66 100 CALM      29.95R
6HR MIN TEMP:  66; 6HR MAX TEMP:  68;

NACOGDOCHES    MOCLDY    70  68  94 CALM      29.93S
6HR MIN TEMP:  68; 6HR MAX TEMP:  70;

LUFKIN         CLOUDY    75  71  87 CALM      29.92R
6HR MIN TEMP:  74; 6HR MAX TEMP:  75; 6HR PCP: TRACE;

$$

SUPPLEMENTAL OBSERVATIONS (CENTRAL)

CITY           SKY/WX    TMP DP  RH WIND       PRES   REMARKS
LAKE TEXOMA      N/A     68  64  88 E2          N/A
PAT MAYSE LAKE   N/A     72  70  94 NE5         N/A
LAKE LIMESTONE   N/A     73  70  88 E5          N/A
MCGREGOR         N/A     70  68  94 NE5         N/A
$$

SUPPLEMENTAL OBSERVATIONS (WEST)

CITY           SKY/WX    TMP DP  RH WIND       PRES   REMARKS
MILLERS CREEK    N/A     70  66  88 E3          N/A
COMANCHE         N/A     70  68  94 E5          N/A
HAMBY            N/A     70  68  94 E3          N/A



USA.gov is the U.S. government's official web portal to all federal, state and local government web resources and services.